Regional Weather Roundup
Issued by NWS State College, PA

Home | Current Version | Previous Version | Graphics & Text | Print | Product List | Glossary On
Versions: 1 2 3 4 5 6 7 8 9 10 11 12 13 14 15 16 17 18 19 20 21 22 23 24 25 26 27 28 29 30 31 32 33 34 35 36 37 38 39 40 41 42 43 44 45 46 47 48 49 50
000
ASUS41 KCTP 030603
RWRCTP

REGIONAL WEATHER ROUNDUP
NATIONAL WEATHER SERVICE STATE COLLEGE PA
100 AM EST SAT DEC 03 2016

Note: "fair" indicates few or no clouds below 12,000 feet with no
significant weather and/or obstructions to visibility.

* = STATION THAT DOES NOT REPORT PRECIPITATION /E.G. RAIN...SNOW...ETC/
    THUNDER OR FOG.

PAZ002>004-007>009-013>016-020>023-029>032-030700-
WESTERN PENNSYLVANIA

CITY           SKY/WX    TMP DP  RH WIND       PRES   REMARKS
ERIE           CLOUDY    41  33  73 W15G26    30.14S
MEADVILLE      CLOUDY    35  30  82 W10       30.13S
FRANKLIN*        N/A     34  27  75 W12G22    30.14R
NEW CASTLE     CLOUDY    36  30  79 W8        30.20R
BEAVER COUNTY  NOT AVBL
BUTLER*        CLOUDY    36  28  75 W8        30.20S
PITTSBURGH INT CLOUDY    37  30  75 W10       30.19S
PITTSBURGH     CLOUDY    36  27  69 W12G18    30.18S
INDIANA*       CLOUDY    36  32  87 W9G20     30.17R
LATROBE        CLOUDY    36  30  80 W8        30.19S
WASHINGTON CO* PTCLDY    36  27  69 W7        30.21F
$$

PAZ004>006-010>012-017>019-024>028-033>037-041-042-045-046-049>053-030700-
CENTRAL PENNSYLVANIA

CITY           SKY/WX    TMP DP  RH WIND       PRES   REMARKS
BRADFORD       MIX PCPN  34  32  92 W14G30    30.01R
DUBOIS         CLOUDY    34  29  82 W15G26    30.06S
CLEARFIELD     CLOUDY    36  31  82 W10G18    30.06S
JOHNSTOWN      CLOUDY    32  29  88 W20G28    30.09R
ALTOONA        CLOUDY    37  30  75 W12G25    30.09F
STATE COLLEGE  CLOUDY    37  31  76 W16G23    30.05R
WILLIAMSPORT   CLOUDY    41  31  67 W14       29.99S
SELINSGROVE    CLOUDY    42  31  64 W10G21    30.02S
FT INDIANTOWN  MOCLDY    42  29  60 W14G28    30.01S
CAPITAL CITY   MOCLDY    43  27  53 W8G20     30.04
HARRISBURG     MOCLDY    42  31  64 W12       30.03S
YORK           PTCLDY    40  30  67 W10       30.05S
$$

PAZ038>040-043-044-047-048-054-055-060>062-067>071-030700-
EASTERN PENNSYLVANIA

CITY           SKY/WX    TMP DP  RH WIND       PRES   REMARKS
SCRANTON       LGT RAIN  38  32  79 W12       29.95R
MOUNT POCONO   FLURRIES  33  29  85 W13       29.87S
ALLENTOWN      CLOUDY    42  29  59 W12G21    29.96S
QUAKERTOWN*    CLOUDY    41  28  60 W8G16     29.97F
READING        MOCLDY    41  28  60 W14       29.99S
LANCASTER      PTCLDY    41  31  67 W9        30.02S
COATESVILLE    CLEAR     37  30  75 W13       30.02R
POTTSTOWN      MOCLDY    41  29  62 W13G18    30.01R
BLUE BELL      MOCLDY    37  30  75 W6        29.98S
DOYLESTOWN     MOCLDY    42  30  62 W12       29.96S
WILLOW GROVE   NOT AVBL
NORTH PHILA    PTCLDY    43  29  57 W14       30.01S
PHILADELPHIA   PTCLDY    42  29  59 W15       30.02S
$$




USA.gov is the U.S. government's official web portal to all federal, state and local government web resources and services.